Regional Weather Roundup
Issued by NWS

Home | Current Version | Previous Version | Text Only | Print | Product List | Glossary On
Versions: 1 2 3 4 5 6 7 8 9 10 11 12 13 14 15 16 17 18 19 20 21 22 23 24 25 26 27 28 29 30 31 32 33 34 35 36 37 38 39 40 41 42 43 44 45 46 47 48 49 50
000
ASUS43 KDMX 200006
RWRIA

WEATHER ROUNDUP FOR IOWA
NATIONAL WEATHER SERVICE DES MOINES IA
600 PM CST THU JAN 19 2017

NOTE: "FAIR" INDICATES FEW OR NO CLOUDS BELOW 12,000 FEET WITH NO
SIGNIFICANT WEATHER AND/OR OBSTRUCTIONS TO VISIBILITY.

* - THESE STATIONS ARE NOT NWS STATIONS...THUS NOT UNDER NWS
QUALITY CONTROL.  THEY ALSO DO NOT REPORT WEATHER SUCH
AS PRECIPITATION OR FOG.

IAZ001>003-012>014-020>022-031>034-043>046-200100-
   NORTHWEST IOWA

CITY           SKY/WX    TMP DP  RH WIND       PRES   REMARKS
CARROLL *      FOG       37  37 100 E6        29.68R VSB<1/4 WCI  33
CHEROKEE *     CLOUDY    38  38 100 E3        29.67S FOG
DENISON *      FOG       39  39 100 E6        29.65R VSB 1/4 WCI  35
LE MARS *      CLOUDY    39  39 100 CALM      29.67S FOG
ORANGE CITY *  FOG       37  37 100 CALM      29.67S VSB 3/4
SHELDON *      CLOUDY    37  37 100 SE6       29.65F FOG     WCI  33
SIOUX CITY     FOG       40  39  97 SE6       29.66R VSB 1/4
6HR MIN TEMP:  38; 6HR MAX TEMP:  41;

SPENCER        FOG       36  35  96 E5        29.68S VSB 1/2 WCI  32
6HR MIN TEMP:  36; 6HR MAX TEMP:  40;

STORM LAKE *   FOG       36  36 100 SE5       29.67R VSB<1/4 WCI  32
$$

IAZ055>058-069>071-079>083-090>094-200100-
   SOUTHWEST IOWA

CITY           SKY/WX    TMP DP  RH WIND       PRES   REMARKS
ATLANTIC *     CLOUDY    41  41 100 E6        29.67R FOG
AUDUBON *      FOG       39  37  93 CALM      29.68R VSB 3/4
CLARINDA *     CLOUDY    43  43 100 S3        29.68S FOG
COUNCIL BLFS * FOG       39  39 100 CALM      29.66R VSB<1/4
CRESTON *      FOG       39  39 100 E6        29.69R VSB 1/4 WCI  35
HARLAN  *      FOG       41  41 100 CALM      29.70R VSB 1
LAMONI         FOG       42  42 100 E3        29.67S VSB 1/4
6HR MIN TEMP:  41; 6HR MAX TEMP:  44;

RED OAK *      CLOUDY    43  43 100 E3        29.67R FOG
SHENANDOAH *   FOG       41  41 100 CALM      29.67S VSB 1/4
$$

IAZ047>049-059>061-072>074-084-200100-
   CENTRAL IOWA

CITY           SKY/WX    TMP DP  RH WIND       PRES   REMARKS
AMES           CLOUDY    37  37 100 E6        29.71S FOG     WCI  32
6HR MIN TEMP:  37; 6HR MAX TEMP:  38;

ANKENY *       FOG       37  36  93 E6        29.72S VSB 3/4 WCI  33
BOONE *        FOG       36  36 100 E9        29.69S VSB<1/4 WCI  29
CHARITON *     FOG       37  37 100 E5        29.70R VSB 1/4 WCI  34
DES MOINES     DRZL/FOG  38  37  97 E8        29.70F VSB 1/2 WCI  32
6HR MIN TEMP:  38; 6HR MAX TEMP:  40; 6HR PCP: TRACE;

GRINNELL*      FOG       36  36  99 E10       29.71F VSB 3/4 WCI  28
KNOXVILLE *    FOG       37  37 100 E7        29.69S VSB 1/4 WCI  32
MARSHALLTOWN   LGT RAIN  36  36 100 E8        29.72R FOG     WCI  30
6HR MIN TEMP:  35; 6HR MAX TEMP:  37; 6HR PCP:  0.07;

NEWTON *       CLOUDY    36  36 100 E9        29.70F FOG     WCI  29
PELLA *        CLOUDY    37  37  99 E6        29.72S FOG     WCI  33
PERRY *        FOG       37  37  97 E8        29.69S VSB 1/2 WCI  31
$$

IAZ004>006-015-016-023>025-035-036-200100-
   NORTH CENTRAL IOWA

CITY           SKY/WX    TMP DP  RH WIND       PRES   REMARKS
ALGONA *       FOG       36  36 100 SE6       29.71R VSB 1   WCI  31
CLARION *      CLOUDY    36  36 100 SE15      29.70F FOG     WCI  26
ESTHERVILLE    CLOUDY    34  34 100 E12       29.68S FOG     WCI  25
6HR MIN TEMP:  34; 6HR MAX TEMP:  38;

FORT DODGE *   CLOUDY    36  34  93 E5        29.70S WCI  32
MASON CITY     LGT RAIN  35  33  92 SE6       29.74R WCI  30
6HR MIN TEMP:  31; 6HR MAX TEMP:  36; 6HR PCP: TRACE;

FOREST CITY *  CLOUDY    34  34 100 SE8       29.72R FOG     WCI  27
WEBSTER CITY * FOG       36  36 100 E6        29.69S VSB 1/4 WCI  31
IOWA FALLS *   FOG       36  35  96 SE8       29.72F VSB 3/4 WCI  29
$$

IAZ007>011-017>019-026>030-037>042-050>054-066-200100-
   NORTHEAST IOWA

CITY           SKY/WX    TMP DP  RH WIND       PRES   REMARKS
CEDAR RAPIDS   RAIN      36  36 100 E10       29.74S FOG     WCI  28
6HR MIN TEMP:  36; 6HR MAX TEMP:  37; 6HR PCP:  0.27;

CHARLES CITY * CLOUDY    36  36 100 SE14      29.73S FOG     WCI  27
CLINTON *      RAIN      37  36  96 E10       29.78F FOG     WCI  30
DECORAH *      CLOUDY    36  34  93 E9        29.76F FOG     WCI  29
DUBUQUE        LGT RAIN  36  36 100 E8        29.77F FOG     WCI  30
6HR MIN TEMP:  36; 6HR MAX TEMP:  38; 6HR PCP:  0.13;

MONTICELLO *   CLOUDY    37  37 100 E6        29.76S FOG     WCI  33
OELWEIN *      LGT RAIN  36  36 100 E12       29.74F WCI  27
WATERLOO       LGT RAIN  36  35  96 SE10      29.73S FOG     WCI  28
6HR MIN TEMP:  34; 6HR MAX TEMP:  36; 6HR PCP:  0.33;

$$

IAZ064-065-067-068-078-200100-
   EAST CENTRAL IOWA

CITY           SKY/WX    TMP DP  RH WIND       PRES   REMARKS
DAVENPORT      CLOUDY    38  37  97 E12       29.76F FOG     WCI  30
6HR MIN TEMP:  37; 6HR MAX TEMP:  39; 6HR PCP:  0.10;

IOWA CITY      LGT RAIN  40  38  93 E6        29.77R
6HR MIN TEMP:  38; 6HR MAX TEMP:  40; 6HR PCP:  0.33;

MUSCATINE *    LGT RAIN  41  39  93 E7        29.76S
QUAD CITIES    CLOUDY    39  36  89 E16       29.75F FOG     WCI  30
6HR MIN TEMP:  39; 6HR MAX TEMP:  42; 6HR PCP:  0.20;

$$

IAZ062-063-075>077-085>089-095>099-200100-
   SOUTHEAST IOWA

CITY           SKY/WX    TMP DP  RH WIND       PRES   REMARKS
BURLINGTON     CLOUDY    41  41 100 E7        29.73S FOG
6HR MIN TEMP:  38; 6HR MAX TEMP:  41; 6HR PCP:  0.01;

FAIRFIELD *    FOG       37  37 100 E8        29.72S VSB 1   WCI  31
FORT MADISON * CLOUDY    41  39  93 E3        29.74S FOG
KEOKUK *       CLOUDY    43  43 100 E8        29.71S FOG
OSKALOOSA *    CLOUDY    37  37  99 E10       29.71F FOG     WCI  30
OTTUMWA        CLOUDY    38  38 100 E9        29.71F FOG     WCI  31
6HR MIN TEMP:  38; 6HR MAX TEMP:  40; 6HR PCP:  0.08;

WASHINGTON *   CLOUDY    37  37 100 E8        29.75S FOG     WCI  31
$$

ABBREVIATIONS USED IN REMARKS
   TC - TEMPERATURES IN CELSIUS
  WCI - WIND CHILL INDEX
   HX - HEAT INDEX
  VSB - VISIBILITY
$$





USA.gov is the U.S. government's official web portal to all federal, state and local government web resources and services.